{"data":{"norad_id":43111,"epoch":"2026-05-25T03:44:14.436960Z","epoch_age_seconds":71852,"freshness":"FRESH","line1":"1 43111U 18004A   26145.15572265  .00003971  00000+0  19162-3 0  9995","line2":"2 43111  97.4801 205.0124 0000948  49.1249 311.0068 15.19262299463834","mean_motion":15.19262299,"eccentricity":9.48e-5,"inclination_deg":97.4801,"raan_deg":205.0124,"arg_perigee_deg":49.1249,"mean_anomaly_deg":311.0068,"bstar":0.00019162,"rev_number":46383,"period_min":94.782843025054,"perigee_km":507.41603473362,"apogee_km":508.72165936222,"semimajor_km":6886.2058470479,"source":"CELESTRAK","updated_at":"2026-05-25T13:38:12.829120Z"}}